DateTime,Index
2005070418,0.0
2005070500,0.0
2005070506,0.0
2005070512,1225.0
2005070518,1600.0
2005070600,2025.0
2005070606,2500.0
2005070612,3025.0
2005070618,3600.0
2005070700,4900.0
2005070706,6400.0
2005070712,8100.0
2005070718,10000.0
2005070800,14400.0
2005070806,12100.0
2005070812,16900.0
2005070818,14400.0
2005070900,10000.0
2005070906,5625.0
2005070912,6400.0
2005070918,8100.0
2005071000,12100.0
2005071006,15625.0
2005071012,14400.0
2005071018,12100.0
2005071100,2025.0
2005071106,0.0
2005071112,0.0
2005071118,0.0
2005071200,0.0
2005071206,0.0
2005071212,0.0
2005071218,0.0
2005071300,0.0
2005071306,0.0
2005071312,0.0
2005071318,0.0
2005071400,0.0
2005071406,0.0
2005071412,0.0
2005071418,0.0
2005071500,0.0
2005071506,0.0
2005071512,0.0
2005071518,0.0
2005071600,0.0
2005071606,0.0
2005071612,0.0
2005071618,0.0
2005071700,0.0
2005071706,0.0
2005071712,0.0
2005071718,0.0
2005071800,0.0
2005071806,0.0
